Tracking 19644 objects as of 24-Apr-2019
HD Live streaming from Space Station
objects crossing your sky now

CZ-4 DEB

Track CZ-4 DEB now!
10-day predictions


NORAD ID: 26200
Int'l Code: 1999-057CN
Perigee: 659.2 km
Apogee: 735.5 km
Inclination: 98.0 °
Period: 98.6 minutes
Semi major axis: 7068 km
RCS: 0.038 m2 (small)
Launch date: October 14, 1999
Source: People's Republic of China (PRC)
Launch site: Taiyaun Space Center, China (TSC)

Note: This is SATELLITE DEBRIS
aabbcc
Your satellite tracking list
Your tracking list is empty




NASA's NSSDC Master Catalog

Two Line Element Set (TLE):
1 26200U 99057CN  19114.17015299  .00000251  00000-0  59882-4 0  9994
2 26200  97.9738  87.0787 0053998 259.2060 100.3060 14.60910205 14014
Source of the keplerian elements: AFSPC